GW1374 Weather Reports


time (UTC)temp
F
wind
direction
speed
knots
gust
knots
rain 1hr
in
rain 24hr
in
rain mn
in
humidity
%
barometer
mb
20260509173108 49 221 0.9 4.3 0.00 0.28 0.28 96 1007.8
20260509171545 49 221 0.0 2.6 0.00 0.28 0.28 95 1007.7
20260509170053 49 221 0.0 1.7 0.01 0.28 0.28 95 1007.6
20260509164554 48 205 0.0 2.6 0.01 0.28 0.28 95 1007.8
20260509163048 48 178 0.9 2.6 0.01 0.28 0.28 95 1007.8
20260509161544 48 162 0.9 2.6 0.01 0.28 0.28 95 1008.0
20260509160047 49 221 0.9 2.6 0.01 0.27 0.27 95 1008.1
20260509154548 48 162 0.9 2.6 0.01 0.27 0.27 95 1008.3
20260509153049 49 185 0.9 3.5 0.02 0.27 0.27 95 1008.1
20260509151605 49 171 0.9 2.6 0.03 0.27 0.27 96 1008.4
20260509150053 48 150 0.9 3.5 0.03 0.26 0.26 96 1008.7
20260509144545 48 229 0.9 3.5 0.04 0.26 0.26 96 1008.8
20260509143054 48 187 0.9 2.6 0.04 0.25 0.25 96 1008.8
20260509141552 47 153 0.9 1.7 0.04 0.24 0.24 96 1008.9
20260509140049 47 227 0.9 1.7 0.04 0.23 0.23 96 1008.9
20260509134548 47 238 0.9 1.7 0.05 0.22 0.22 96 1008.8
20260509133041 47 238 0.9 1.7 0.05 0.21 0.21 96 1009.0
20260509131558 46 243 0.9 1.7 0.07 0.20 0.20 96 1009.0
20260509130108 46 190 0.9 2.6 0.08 0.19 0.19 95 1009.1
20260509124544 46 193 0.0 1.7 0.07 0.17 0.17 95 1009.1
20260509123115 46 0 0.0 1.7 0.08 0.16 0.16 95 1009.2
20260509121545 46 0 0.0 1.7 0.08 0.13 0.13 95 1009.3
20260509120050 45 0 0.0 1.7 0.08 0.11 0.11 95 1009.4
20260509114606 45 178 0.0 1.7 0.09 0.10 0.10 95 1009.4
20260509113040 45 196 0.9 1.7 0.08 0.08 0.08 95 1009.4
20260509111542 45 215 0.0 1.7 0.05 0.05 0.05 95 1009.5
20260509110046 45 221 0.0 1.7 0.03 0.03 0.03 95 1009.2
20260509104544 45 0 0.0 1.7 0.01 0.01 0.01 95 1009.1
20260509103044 44 221 0.0 1.7 0.00 0.00 0.00 94 1009.1
20260509101553 45 221 0.0 2.6 0.00 0.00 0.00 94 1009.2
20260509100047 45 243 0.0 1.7 0.00 0.00 0.00 94 1008.9
20260509094554 44 0 0.0 1.7 0.00 0.00 0.00 94 1009.0
20260509093049 44 178 0.0 1.7 0.00 0.00 0.00 93 1009.0
20260509091550 44 221 0.0 1.7 0.00 0.00 0.00 93 1009.2
20260509090046 44 0 0.0 1.7 0.00 0.00 0.00 93 1009.2
20260509084556 44 205 0.0 1.7 0.00 0.00 0.00 93 1009.3
20260509083043 43 193 0.9 3.5 0.00 0.00 0.00 92 1009.4
20260509081556 43 178 0.0 1.7 0.00 0.00 0.00 90 1009.5
20260509080054 43 221 0.9 2.6 0.00 0.00 0.00 88 1009.7
20260509074545 43 221 0.0 1.7 0.00 0.00 0.00 88 1009.5
20260509073046 43 0 0.0 1.7 0.00 0.00 0.00 87 1009.6
20260509071551 43 0 0.0 0.9 0.00 0.00 0.00 85 1009.4
20260509070050 42 0 0.0 1.7 0.00 0.00 0.00 80 1009.4
20260509064553 42 119 0.0 1.7 0.00 0.00 0.00 79 1009.5
20260509063047 43 165 0.0 1.7 0.00 0.00 0.00 77 1009.7
20260509061600 43 0 0.0 1.7 0.00 0.00 0.00 76 1009.9
20260509060048 44 178 0.9 1.7 0.00 0.00 0.00 73 1010.2
20260509054605 44 51 0.0 1.7 0.00 0.00 0.00 71 1010.2
20260509053055 44 119 0.0 1.7 0.00 0.00 0.00 69 1010.5
20260509051549 44 119 0.0 1.7 0.00 0.00 0.00 69 1010.4
20260509050052 44 131 0.0 1.7 0.00 0.00 0.00 67 1010.2
20260509044545 44 0 0.0 1.7 0.00 0.00 0.00 67 1010.4
20260509043041 45 115 0.9 1.7 0.00 0.00 0.00 66 1010.4
20260509041542 45 126 0.0 1.7 0.00 0.00 0.00 64 1010.5
20260509040045 45 0 0.0 1.7 0.00 0.00 0.00 64 1010.4
20260509034541 45 105 0.9 1.7 0.00 0.00 0.00 63 1010.3
20260509033045 45 105 0.9 1.7 0.00 0.00 0.00 63 1010.3
20260509031604 45 93 0.9 1.7 0.00 0.00 0.00 64 1010.4
20260509030050 46 93 0.0 1.7 0.00 0.00 0.00 65 1010.7
20260509024541 46 115 0.9 1.7 0.00 0.00 0.00 62 1010.9
20260509023041 47 110 0.9 2.6 0.00 0.00 0.00 61 1010.8
20260509021548 47 115 0.9 2.6 0.00 0.00 0.00 60 1010.7
20260509020049 47 115 0.9 1.7 0.00 0.00 0.00 60 1010.9
20260509014544 47 126 0.0 1.7 0.00 0.00 0.00 60 1010.8
20260509013042 48 142 0.9 2.6 0.00 0.00 0.00 60 1010.7
20260509011541 48 126 0.0 1.7 0.00 0.00 0.00 61 1010.4
20260509010049 48 0 0.9 2.6 0.00 0.00 0.00 60 1010.0
20260509004542 49 115 0.9 1.7 0.00 0.00 0.00 58 1009.9
20260509003047 49 105 0.9 1.7 0.00 0.00 0.00 57 1009.8
20260509001544 49 0 0.9 1.7 0.00 0.00 0.00 56 1009.8
20260509000045 50 0 0.0 0.9 0.00 0.00 0.00 52 1009.7
20260508234548 51 0 0.0 0.9 0.00 0.00 0.00 53 1009.7
20260508233053 51 93 0.9 1.7 0.00 0.00 0.00 51 1009.5
20260508231543 51 83 0.9 1.7 0.00 0.00 0.00 52 1009.5
20260508230122 52 83 0.0 2.6 0.00 0.00 0.00 53 1009.4
20260508224553 52 51 0.0 2.6 0.00 0.00 0.00 52 1009.3
20260508223049 53 162 0.9 2.6 0.00 0.00 0.00 49 1009.2
20260508221547 53 47 0.9 3.5 0.00 0.00 0.00 50 1009.1
20260508220113 53 20 1.7 5.2 0.00 0.00 0.00 48 1009.3
20260508214556 53 76 0.9 3.5 0.00 0.00 0.00 50 1009.4
20260508213053 53 51 0.0 5.2 0.00 0.00 0.00 50 1009.6
20260508211548 53 18 1.7 6.1 0.00 0.00 0.00 51 1009.5
20260508210046 52 101 0.9 3.5 0.00 0.00 0.00 52 1009.7
20260508204546 51 0 0.9 3.5 0.00 0.00 0.00 50 1009.8
20260508203048 52 80 0.9 5.2 0.00 0.00 0.00 52 1010.0
20260508201548 53 309 0.9 6.1 0.00 0.00 0.00 49 1009.9
20260508200043 53 309 1.7 6.1 0.00 0.00 0.00 47 1010.0
20260508194542 51 75 1.7 5.2 0.00 0.00 0.00 52 1010.1
20260508193052 50 9 1.7 5.2 0.00 0.00 0.00 57 1010.2
20260508191547 49 250 0.9 5.2 0.00 0.00 0.00 58 1010.4
20260508190101 50 47 0.9 10.4 0.00 0.00 0.00 59 1010.6
20260508184552 49 313 2.6 5.2 0.00 0.00 0.00 60 1010.9
20260508183046 48 247 1.7 4.3 0.00 0.00 0.00 64 1011.2
20260508181605 48 312 0.9 6.1 0.00 0.00 0.00 67 1011.3
20260508180101 48 301 2.6 7.0 0.00 0.00 0.00 65 1011.3
20260508174602 46 265 0.9 3.5 0.00 0.00 0.00 70 1011.3